STARLINK-31662, 59584

Orbit data source: Space-Track

STARLINK-31662, 59584 is a payload satellite owned by SpaceX/Seattle (US) in LEO that was launched on Tue, 23 Apr 2024 UTC via an FALCON 9 launch vehicle from the Air Force Eastern Test Range (AFETR). Payload-class satellites include a variety of spacecraft equipped with specific instruments for various scientific and technological missions. These include communications satellites like Starlink; space stations such as the ISS; scientific satellites like the Hubble; Earth observation satellites from companies like Planet Labs, Umbra, and HawkEye 360; GPS; miniature CubeSats for education and research; and military/defense satellites.

Loading next visibility...
Identifier
59584, 2024-076W
Orbit
LEO
Country
Flag of USUS
Related business
Manufacturer
SpaceX/Seattle
Mission
Operational Commercial Communications
Bus & Motor
STARLINK V2M, Unknown motor
Mass
730 kg wet, ~700 kg dry
Launch date (UTC)
2024-04-23 (2 years ago)
Launch vehicle
FALCON 9
Launch site
Air Force Eastern Test Range (AFETR)
Object type
Payload
Rocket body
Debris
Shape & HBR
Box + 2 Pan, 17.7 m
Radar Cross Section
33.884 m², Large (>1 m²)

Expand to show TLE details & history
Last TLE update: 10 hours ago

TLE from 10 hours ago
0 STARLINK-31662
1 59584U 24076W   25340.59439378 -.00001404  00000-0 -41515-4 0  9993
2 59584  43.0037 174.8647 0001741 262.9785  97.0869 15.27566059 92263
Epoch: 2025-12-06T14:15Z
TLE epoch observation values (Epoch: 2025-12-06T14:15:55.622Z)
Latitude
-0°
Longitude
-114.73695°
Altitude
483.014 km
Speed
7.626 km/s
True Right ascension
11h 39m 27s
True Declination
0° 00' 00"
Sunlit
Object was in daylight at epoch
Visualization orbit readout
Latitude
Unknown
Longitude
Unknown
Altitude
Unknown
Speed
Unknown
Apparent Right ascension
Unknown
Apparent Declination
Unknown
Sunlit
N/A
Visualization observer readout
Local Sidereal Time
22:39:48
Azimuth
Unknown
Elevation
Unknown
Doppler factor
Unknown
Orbital elements
Apogee altitude
486.23 km
Perigee altitude
483.841 km
Semi-major axis
6,863.172 km
Eccentricity
0.00017
Inclination
43.0037°
RAAN
174.8647°
Arg. of periapsis
262.9785°
True anomaly
97.1067°
Mean anomaly
97.0869°
Eccentric anomaly
97.0968°
Mean motion
3.8173 °/min
Orbital period
94.31 mins
BSTAR
-0.000041515
Loading maneuver chart data...
Computing Atmospheric mass density...
Loading historical data...
Loading historical data...
Loading historical data...
Loading historical data...
Loading historical data...
Loading historical data...
Loading historical data...

Documentation

Showing up to 5 results
|